Regional Weather Roundup
Issued by NWS Sterling, VA

Home | Current Version | Previous Version | Graphics & Text | Print | Product List | Glossary On
Versions: 1 2 3 4 5 6 7 8 9 10 11 12 13 14 15 16 17 18 19 20 21 22 23 24 25 26 27 28 29 30 31 32 33 34 35 36 37 38 39 40 41 42 43 44 45 46 47 48 49 50
000
ASUS41 KLWX 250010
RWRLWX

REGIONAL WEATHER ROUNDUP
NATIONAL WEATHER SERVICE BALTIMORE MD/WASHINGTON DC
800 PM EDT THU JUL 24 2014

Note: "FAIR" indicates few or no clouds below 12,000 feet
with no significant weather and/or obstructions to visibility.
 TC=TEMPERATURE CELSIUS

 * =Non NWS site. Station does not report precipitation (e.g. rain,
    snow, etc.), thunder, or fog.

DCZ001-MDZ009-015-VAZ040>042-051-053>054-250100-
WASHINGTON METRO
  /KDAA//-FT BELVOIR

CITY           SKY/WX    TMP DP  RH WIND       PRES   REMARKS
WASHINGTON NAT CLOUDY    78  56  46 N14       29.90S
DULLES         CLOUDY    74  56  53 NE10      29.91S
ANDREWS AFB    CLOUDY    74  60  61 N9        29.90R
QUANTICO       CLOUDY    72  68  87 NW9       29.91S
COLLEGE PARK*  CLOUDY    77  59  53 N5        29.90R
LEESBURG*      MOCLDY    75  63  64 CALM      29.93R
MANASSAS*      CLEAR     75  64  69 N6        29.91
GAITHERSBURG*  MOCLDY    72  61  68 CALM      29.96R

$$

MDZ006>007-011-014-250100-
BALTIMORE METRO

CITY           SKY/WX    TMP DP  RH WIND       PRES   REMARKS
BWI AIRPORT    CLOUDY    75  59  57 NW3       29.89S
MD SCIENCE CTR   N/A     77  55  46 MISG      29.90S
MARTIN STATE   CLOUDY    75  61  60 NW7       29.90S
ANNAPOLIS      CLOUDY    77  61  57 N7        29.89S
FORT MEADE*    CLOUDY    70  61  73 NW3       29.92S

$$

MDZ012-015-019>023-250100-
MARYLAND EASTERN SHORE

CITY           SKY/WX    TMP DP  RH WIND       PRES   REMARKS
OCEAN CITY     LGT RAIN  73  68  84 CALM      29.89R
SALISBURY      NOT AVBL
BAY BRIDGE AP*   N/A     77  61  57 N6        29.89R
CAMBRIDGE*     CLOUDY    73  68  83 CALM      29.89R
EASTON*        CLOUDY    75  68  78 CALM      29.93R

$$

MDZ017>025-250100-
SOUTHERN MARYLAND

CITY           SKY/WX    TMP DP  RH WIND       PRES   REMARKS
PATUXENT RIVER LGT RAIN  70  67  90 CALM      29.87F
ST INIGOES     LGT RAIN  70  66  87 E5        29.86F
LEONARDTOWN*   CLOUDY    68  64  88 SW3       29.92R

$$

MDZ003>005-250100-
NORTH CENTRAL MARYLAND

CITY           SKY/WX    TMP DP  RH WIND       PRES   REMARKS
FREDERICK*     CLEAR     73  63  68 NE5       29.94S
HAGERSTOWN APT CLOUDY    75  54  47 N8        29.94R
WESTMINSTER*   MOCLDY    73  57  56 N3        29.94R

$$

MDZ501>502-250100-
WESTERN MARYLAND

CITY           SKY/WX    TMP DP  RH WIND       PRES   REMARKS
OAKLAND*       CLEAR     63  52  67 CALM      30.04R
CUMBERLAND*    CLEAR     77  52  41 N3        29.99R

$$

VAZ025>031-250100-
SHENANDOAH VALLEY

CITY           SKY/WX    TMP DP  RH WIND       PRES   REMARKS
WINCHESTER*    PTCLDY    70  61  73 CALM      29.94S
STAUNTON*      CLOUDY    70  64  82 CALM      29.98R

$$

WVZ021-048>050-054>055-250100-
EASTERN WEST VIRGINIA PANHANDLE

CITY           SKY/WX    TMP DP  RH WIND       PRES   REMARKS
MARTINSBURG    PTCLDY    75  55  49 NE5       29.94R
PETERSBURG*    PTCLDY    73  60  63 CALM      29.96R

$$

VAZ036>039-050-250100-
CENTRAL FOOTHILLS

CITY           SKY/WX    TMP DP  RH WIND       PRES   REMARKS
CHARLOTTESVILL LGT RAIN  70  68  93 CALM      29.93S
ORANGE*        MOCLDY    70  66  88 CALM      29.94R

$$

VAZ055>057-250100-
NORTH AND CENTRAL PIEDMONT

CITY           SKY/WX    TMP DP  RH WIND       PRES   REMARKS
FREDERICKSBRG* CLOUDY    71  70  98 CALM      29.90S
STAFFORD*      CLOUDY    69  69 100 CALM      29.95R

$$

NCZ024-NYZ072-PAZ021-071-VAZ022-071-250100-
OTHER REGIONAL OBSERVATIONS

CITY           SKY/WX    TMP DP  RH WIND       PRES   REMARKS
NEW YORK CITY  CLEAR     76  56  49 VRB6      29.89R
PHILADELPHIA   CLOUDY    79  53  40 NW15      29.89R
PITTSBURGH     PTCLDY    72  51  47 N14       30.00R
ROANOKE        MOCLDY    71  66  84 NE6       29.98R
RICHMOND       RAIN      70  68  93 N7        29.90S FOG
RALEIGH        CLOUDY    73  69  87 N6        29.93R

$$

ANZ530>537-250100-
MARINE OBSERVATIONS

STATION/POSITION TIME  TEMP    WIND        PRES
                       AIR SEA DIR/SP/G
                 (UTC) (F)     (DEG/KT/KT) (MB)
THOMAS PT LIGHT  0000   77 80  350/ 10/ 12 1012.5R
BALT KEY BRIDGE  0000   78     330/ 12/ 15 1011.9S
COVE POINT       0000   72     270/  3/  5 1012.0S
LEWISETTA        0000   73 80   70/  6/  7 1011.6F
SOLOMONS ISLAND  0000      81                N/A
PINEY POINT      0000           80/  5/  7   N/A

$$



USA.gov is the U.S. government's official web portal to all federal, state and local government web resources and services.